Columbia Airport, CA

5:49 PM PST on December 13, 2019 (GMT -0800)
Columbia Airport

Weather History for KO22 - August, 2019

Change the Weather History Date:

Sunday, August 25, 2019

  Actual Average (KMOD) Record (KMOD)
Temperature  
Mean Temperature 82 °F -  
Max Temperature 100 °F 90 °F 107 °F (2010)
Min Temperature 64 °F 59 °F 48 °F (1963)
Cooling Degree Days 17    
Growing Degree Days 32 (Base 50)    
Moisture  
Dew Point 54 °F    
Average Humidity 41    
Maximum Humidity 68    
Minimum Humidity 18    
Precipitation  
Precipitation 0.00 in - - ()
Sea Level Pressure  
Sea Level Pressure 30.03 in    
Wind  
Wind Speed 2 mph (SW)    
Max Wind Speed 10 mph    
Max Gust Speed 14 mph    
Visibility 10 miles    
Events      
Averages and records for this station are not official NWS values.
T = Trace of Precipitation, MM = Missing Value Source: NWS Daily Summary

Daily Weather History Graph

Daily Weather History Graph

Search for Another Location

Airport or City:

Astronomy

Aug. 25, 2019 Rise Set
Actual Time 6:25 AM PDT 7:41 PM PDT
Civil Twilight 5:57 AM PDT 8:08 PM PDT
Nautical Twilight 5:25 AM PDT 8:41 PM PDT
Astronomical Twilight 4:50 AM PDT 9:15 PM PDT
Moon 1:07 AM PDT (8/25) 4:04 PM PDT (8/25)
Length of Visible Light 14h 10m
Length of Day
13h 16m
Waning Crescent, 28% of the Moon is Illuminated
Aug 25
Waning Crescent
Aug 30
New
Sep 5
First Quarter
Sep 13
Full
Sep 21
Last Quarter

Hourly Weather History & Observations

Time (PDT) Temp. Heat Index Dew Point Humidity Pressure Visibility Wind Dir Wind Speed Gust Speed Precip Events Conditions
12:15 AM 69.8 °F - 55.4 °F 60% 30.02 in 10.0 mi Calm Calm - N/A   Partly Cloudy
12:35 AM 69.8 °F - 55.4 °F 60% 30.02 in 10.0 mi Calm Calm - N/A   Partly Cloudy
12:55 AM 68.0 °F - 55.4 °F 64% 30.02 in 10.0 mi Calm Calm - N/A   Scattered Clouds
1:15 AM 68.0 °F - 55.4 °F 64% 30.02 in 10.0 mi Calm Calm - N/A   Partly Cloudy
1:35 AM 68.0 °F - 55.4 °F 64% 30.02 in 10.0 mi Calm Calm - N/A   Partly Cloudy
1:55 AM 68.0 °F - 55.4 °F 64% 30.02 in 10.0 mi Calm Calm - N/A   Clear
2:15 AM 68.0 °F - 55.4 °F 64% 30.02 in 10.0 mi Calm Calm - N/A   Clear
2:35 AM 66.2 °F - 55.4 °F 68% 30.03 in 10.0 mi Calm Calm - N/A   Clear
2:55 AM 66.2 °F - 55.4 °F 68% 30.03 in 10.0 mi Calm Calm - N/A   Partly Cloudy
3:15 AM 66.2 °F - 55.4 °F 68% 30.03 in 10.0 mi Calm Calm - N/A   Partly Cloudy
3:35 AM 66.2 °F - 55.4 °F 68% 30.03 in 10.0 mi Calm Calm - N/A   Clear
3:55 AM 66.2 °F - 55.4 °F 68% 30.02 in 10.0 mi Calm Calm - N/A   Clear
4:15 AM 66.2 °F - 55.4 °F 68% 30.02 in 10.0 mi Calm Calm - N/A   Partly Cloudy
4:35 AM 66.2 °F - 55.4 °F 68% 30.02 in 10.0 mi Calm Calm - N/A   Partly Cloudy
4:55 AM 66.2 °F - 55.4 °F 68% 30.03 in 10.0 mi North - - N/A   Mostly Cloudy
5:15 AM 66.2 °F - 55.4 °F 68% 30.03 in 10.0 mi Calm Calm - N/A   Mostly Cloudy
5:35 AM 66.2 °F - 55.4 °F 68% 30.03 in 10.0 mi Calm Calm - N/A   Mostly Cloudy
6:15 AM 64.4 °F - 53.6 °F 68% 30.03 in 10.0 mi Calm Calm - N/A   Scattered Clouds
6:55 AM 64.4 °F - 53.6 °F 68% 30.04 in 10.0 mi Calm Calm - N/A   Clear
7:15 AM 66.2 °F - 55.4 °F 68% 30.04 in 10.0 mi Calm Calm - N/A   Clear
7:35 AM 68.0 °F - 55.4 °F 64% 30.05 in 10.0 mi Calm Calm - N/A   Clear
7:55 AM 69.8 °F - 57.2 °F 64% 30.05 in 10.0 mi Calm Calm - N/A   Clear
8:35 AM 78.8 °F - 59.0 °F 51% 30.06 in 10.0 mi Calm Calm - N/A   Clear
8:55 AM 82.4 °F 82.0 °F 57.2 °F 42% 30.06 in 10.0 mi North - - N/A   Clear
9:15 AM 84.2 °F 83.5 °F 57.2 °F 40% 30.06 in 10.0 mi Calm Calm - N/A   Clear
9:35 AM 86.0 °F 84.9 °F 57.2 °F 37% 30.06 in 10.0 mi Calm Calm - N/A   Clear
9:55 AM 87.8 °F 86.5 °F 57.2 °F 35% 30.06 in 10.0 mi Calm Calm - N/A   Clear
10:15 AM 91.4 °F 89.1 °F 53.6 °F 28% 30.06 in 10.0 mi Calm Calm - N/A   Clear
10:35 AM 91.4 °F 89.4 °F 55.4 °F 29% 30.06 in 10.0 mi Variable 4.6 mph - N/A   Clear
10:55 AM 93.2 °F 91.3 °F 55.4 °F 28% 30.06 in 10.0 mi Variable 3.5 mph - N/A   Clear
11:15 AM 95.0 °F 93.0 °F 55.4 °F 26% 30.06 in 10.0 mi SW 5.8 mph - N/A   Clear
11:35 AM 93.2 °F 91.3 °F 55.4 °F 28% 30.06 in 10.0 mi Calm Calm - N/A   Clear
11:55 AM 95.0 °F 92.7 °F 53.6 °F 25% 30.05 in 10.0 mi Variable 5.8 mph - N/A   Clear
12:15 PM 95.0 °F 92.7 °F 53.6 °F 25% 30.05 in 10.0 mi Variable 4.6 mph - N/A   Clear
12:35 PM 96.8 °F - 51.8 °F 22% 30.04 in 10.0 mi Variable 4.6 mph - N/A   Clear
12:55 PM 96.8 °F - 51.8 °F 22% 30.04 in 10.0 mi Calm Calm 13.8 mph N/A   Clear
1:15 PM 98.6 °F - 50.0 °F 19% 30.04 in 10.0 mi SW 8.1 mph - N/A   Clear
1:35 PM 98.6 °F - 50.0 °F 19% 30.03 in 10.0 mi Variable 6.9 mph - N/A   Clear
1:55 PM 98.6 °F - 50.0 °F 19% 30.03 in 10.0 mi SW 8.1 mph - N/A   Clear
2:15 PM 98.6 °F - 51.8 °F 21% 30.02 in 10.0 mi Variable 8.1 mph - N/A   Clear
2:35 PM 98.6 °F - 51.8 °F 21% 30.02 in 10.0 mi Variable 10.4 mph - N/A   Clear
2:55 PM 100.4 °F - 50.0 °F 18% 30.01 in 10.0 mi Variable 8.1 mph - N/A   Clear
3:15 PM 98.6 °F - 50.0 °F 19% 30.02 in 10.0 mi Variable 6.9 mph 12.7 mph N/A   Clear
3:35 PM 98.6 °F - 48.2 °F 18% 30.01 in 10.0 mi Variable 5.8 mph 13.8 mph N/A   Clear
3:55 PM 98.6 °F - 48.2 °F 18% 30.01 in 10.0 mi Variable 8.1 mph - N/A   Clear
4:35 PM 98.6 °F - 50.0 °F 19% 30.01 in 10.0 mi WSW 8.1 mph - N/A   Clear
4:55 PM 96.8 °F - 50.0 °F 20% 30.00 in 10.0 mi WSW 8.1 mph - N/A   Clear
5:15 PM 96.8 °F - 50.0 °F 20% 30.00 in 10.0 mi Variable 9.2 mph - N/A   Clear
5:35 PM 95.0 °F - 51.8 °F 23% 29.99 in 10.0 mi Variable 8.1 mph 13.8 mph N/A   Clear
5:55 PM 95.0 °F - 51.8 °F 23% 29.99 in 10.0 mi Variable 8.1 mph - N/A   Clear
6:15 PM 93.2 °F - 51.8 °F 24% 30.00 in 10.0 mi Variable 5.8 mph 13.8 mph N/A   Clear
6:35 PM 93.2 °F - 51.8 °F 24% 30.00 in 10.0 mi Variable 4.6 mph 11.5 mph N/A   Clear
6:55 PM 91.4 °F 89.1 °F 53.6 °F 28% 29.99 in 10.0 mi West 8.1 mph - N/A   Clear
7:15 PM 89.6 °F 87.3 °F 53.6 °F 29% 29.99 in 10.0 mi Variable 4.6 mph - N/A   Clear
7:35 PM 87.8 °F 85.7 °F 53.6 °F 31% 30.00 in 10.0 mi SSW 4.6 mph - N/A   Clear
7:55 PM 86.0 °F - 51.8 °F 31% 30.00 in 10.0 mi Variable 5.8 mph - N/A   Clear
8:15 PM 86.0 °F - 51.8 °F 31% 30.01 in 10.0 mi SW 4.6 mph - N/A   Clear
8:35 PM 84.2 °F - 51.8 °F 33% 30.01 in 10.0 mi Variable 6.9 mph - N/A   Clear
8:55 PM 84.2 °F - 51.8 °F 33% 30.02 in 10.0 mi Variable 5.8 mph - N/A   Clear
9:15 PM 80.6 °F - 51.8 °F 37% 30.02 in 10.0 mi Variable 3.5 mph - N/A   Clear
9:35 PM 80.6 °F - 51.8 °F 37% 30.02 in 10.0 mi Variable 5.8 mph - N/A   Clear
10:15 PM 80.6 °F - 51.8 °F 37% 30.02 in 10.0 mi Calm Calm - N/A   Clear
10:35 PM 78.8 °F - 51.8 °F 39% 30.02 in 10.0 mi Calm Calm - N/A   Clear
10:55 PM 77.0 °F - 53.6 °F 44% 30.02 in 10.0 mi Calm Calm - N/A   Clear
11:15 PM 75.2 °F - 53.6 °F 47% 30.01 in 10.0 mi SSW 3.5 mph - N/A   Clear
11:35 PM 75.2 °F - 53.6 °F 47% 30.01 in 10.0 mi Variable 3.5 mph - N/A   Clear
11:55 PM 75.2 °F - 53.6 °F 47% 30.00 in 10.0 mi Calm Calm - N/A   Clear